Location: Favalello
(42.2939°N, 9.2706°E)
Time: 13:53:26
(UTC+00:00)

NOAA 12 - Pass Details

Date: 06 December 2019
Orbit: 795 x 815 km, 98.5° (Epoch: 23 January)

Event Time Altitude Azimuth Distance (km) Brightness Sun altitude
Rises 17:12:16 0° 167° (SSE) 3,324 7.4 -14.6°
Reaches altitude 10° 17:14:36 10° 167° (SSE) 2,395 6.6 -15.0°
Maximum altitude 17:19:55 84° 256° (WSW) 821 4.2 -16.0°
Drops below altitude 10° 17:25:14 10° 345° (NNW) 2,400 6.6 -16.9°
Sets 17:27:35 0° 346° (NNW) 3,333 7.3 -17.4°
